| time (UTC) | temp C | wind direction | speed KPH | gust KPH | rain 1hr cm | rain 24hr cm | rain mn cm | humidity % | barometer mb |
| 20260502151153 | 30 | 0.0 | 0.0 | 0.00 | 0.00 | 0.00 | 35 | 812.2 | |
| 20260502150139 | 31 | 0.0 | 0.0 | 0.00 | 0.00 | 0.00 | 34 | 812.2 | |
| 20260502122806 | 30 | 0.0 | 0.0 | 0.00 | 0.00 | 0.00 | 35 | 811.4 | |
| 20260502121751 | 30 | 0.0 | 0.0 | 0.00 | 0.00 | 0.00 | 35 | 811.3 | |
| 20260502120737 | 30 | 0.0 | 0.0 | 0.00 | 0.00 | 0.00 | 35 | 811.1 | |
| 20260502115723 | 30 | 0.0 | 0.0 | 0.00 | 0.00 | 0.00 | 35 | 810.9 | |
| 20260502114709 | 30 | 0.0 | 0.0 | 0.00 | 0.00 | 0.00 | 35 | 810.8 | |
| 20260502113655 | 30 | 0.0 | 0.0 | 0.00 | 0.00 | 0.00 | 35 | 810.8 | |
| 20260502112640 | 30 | 0.0 | 0.0 | 0.00 | 0.00 | 0.00 | 35 | 810.7 | |
| 20260502111626 | 30 | 0.0 | 0.0 | 0.00 | 0.00 | 0.00 | 35 | 810.7 | |
| 20260502110612 | 30 | 0.0 | 0.0 | 0.00 | 0.00 | 0.00 | 35 | 810.7 | |
| 20260502105557 | 30 | 0.0 | 0.0 | 0.00 | 0.00 | 0.00 | 34 | 810.5 | |
| 20260502104543 | 31 | 0.0 | 0.0 | 0.00 | 0.00 | 0.00 | 33 | 810.4 | |
| 20260502103529 | 31 | 0.0 | 0.0 | 0.00 | 0.00 | 0.00 | 32 | 810.3 | |
| 20260502102515 | 31 | 0.0 | 0.0 | 0.00 | 0.00 | 0.00 | 32 | 810.2 | |
| 20260502101501 | 31 | 0.0 | 0.0 | 0.00 | 0.00 | 0.00 | 32 | 810.1 | |
| 20260502100446 | 32 | 0.0 | 0.0 | 0.00 | 0.00 | 0.00 | 30 | 810.1 | |
| 20260502091335 | 31 | 0.0 | 0.0 | 0.00 | 0.00 | 0.00 | 31 | 809.7 | |
| 20260502090321 | 31 | 0.0 | 0.0 | 0.00 | 0.00 | 0.00 | 30 | 809.5 | |
| 20260502071045 | 32 | 0.0 | 0.0 | 0.00 | 0.00 | 0.00 | 27 | 810.0 | |
| 20260502070031 | 33 | 0.0 | 0.0 | 0.00 | 0.00 | 0.00 | 27 | 810.1 | |
| 20260502065017 | 33 | 0.0 | 0.0 | 0.00 | 0.00 | 0.00 | 28 | 810.1 | |
| 20260502064003 | 32 | 0.0 | 0.0 | 0.00 | 0.00 | 0.00 | 26 | 810.0 | |
| 20260502062948 | 33 | 0.0 | 0.0 | 0.00 | 0.00 | 0.00 | 28 | 810.0 | |
| 20260502061934 | 32 | 0.0 | 0.0 | 0.00 | 0.00 | 0.00 | 25 | 809.8 | |
| 20260502060920 | 32 | 0.0 | 0.0 | 0.00 | 0.00 | 0.00 | 27 | 810.1 | |
| 20260502055906 | 32 | 0.0 | 0.0 | 0.00 | 0.00 | 0.00 | 26 | 810.2 | |
| 20260502054852 | 32 | 0.0 | 0.0 | 0.00 | 0.00 | 0.00 | 26 | 810.2 | |
| 20260502053838 | 32 | 0.0 | 0.0 | 0.00 | 0.00 | 0.00 | 26 | 810.1 | |
| 20260502052824 | 33 | 0.0 | 0.0 | 0.00 | 0.00 | 0.00 | 26 | 810.1 | |
| 20260502051810 | 34 | 0.0 | 0.0 | 0.00 | 0.00 | 0.00 | 26 | 810.1 | |
| 20260502050755 | 33 | 0.0 | 0.0 | 0.00 | 0.00 | 0.00 | 25 | 810.0 | |
| 20260502045741 | 32 | 0.0 | 0.0 | 0.00 | 0.00 | 0.00 | 24 | 809.9 | |
| 20260502044727 | 32 | 0.0 | 0.0 | 0.00 | 0.00 | 0.00 | 22 | 809.8 | |
| 20260502043713 | 33 | 0.0 | 0.0 | 0.00 | 0.00 | 0.00 | 24 | 809.7 | |
| 20260502042658 | 33 | 0.0 | 0.0 | 0.00 | 0.00 | 0.00 | 25 | 809.6 | |
| 20260502041644 | 33 | 0.0 | 0.0 | 0.00 | 0.00 | 0.00 | 26 | 809.6 | |
| 20260502040630 | 33 | 0.0 | 0.0 | 0.00 | 0.00 | 0.00 | 25 | 809.5 | |
| 20260502035616 | 32 | 0.0 | 0.0 | 0.00 | 0.00 | 0.00 | 25 | 809.4 | |
| 20260502034601 | 32 | 0.0 | 0.0 | 0.00 | 0.00 | 0.00 | 23 | 809.4 | |
| 20260502033548 | 33 | 0.0 | 0.0 | 0.00 | 0.00 | 0.00 | 25 | 809.3 | |
| 20260502032533 | 33 | 0.0 | 0.0 | 0.00 | 0.00 | 0.00 | 24 | 809.3 | |
| 20260502031519 | 34 | 0.0 | 0.0 | 0.00 | 0.00 | 0.00 | 27 | 809.2 | |
| 20260502030505 | 34 | 0.0 | 0.0 | 0.00 | 0.00 | 0.00 | 26 | 809.0 | |
| 20260502025451 | 34 | 0.0 | 0.0 | 0.00 | 0.00 | 0.00 | 26 | 808.8 | |
| 20260502024437 | 35 | 0.0 | 0.0 | 0.00 | 0.00 | 0.00 | 27 | 808.7 | |
| 20260502023422 | 35 | 0.0 | 0.0 | 0.00 | 0.00 | 0.00 | 27 | 808.4 | |
| 20260502022408 | 34 | 0.0 | 0.0 | 0.00 | 0.00 | 0.00 | 26 | 808.3 | |
| 20260502021354 | 34 | 0.0 | 0.0 | 0.00 | 0.00 | 0.00 | 25 | 808.3 | |
| 20260502020339 | 34 | 0.0 | 0.0 | 0.00 | 0.00 | 0.00 | 25 | 808.1 | |
| 20260502015325 | 34 | 0.0 | 0.0 | 0.00 | 0.00 | 0.00 | 25 | 808.0 | |
| 20260502014311 | 33 | 0.0 | 0.0 | 0.00 | 0.00 | 0.00 | 25 | 807.8 | |
| 20260502013257 | 33 | 0.0 | 0.0 | 0.00 | 0.00 | 0.00 | 25 | 807.6 | |
| 20260502012243 | 34 | 0.0 | 0.0 | 0.00 | 0.00 | 0.00 | 25 | 807.6 | |
| 20260502011228 | 34 | 0.0 | 0.0 | 0.00 | 0.00 | 0.00 | 24 | 807.6 | |
| 20260502010214 | 34 | 0.0 | 0.0 | 0.00 | 0.00 | 0.00 | 24 | 807.6 | |
| 20260502005200 | 34 | 0.0 | 0.0 | 0.00 | 0.00 | 0.00 | 24 | 807.5 | |
| 20260502004146 | 35 | 0.0 | 0.0 | 0.00 | 0.00 | 0.00 | 25 | 807.4 | |
| 20260502003132 | 35 | 0.0 | 0.0 | 0.00 | 0.00 | 0.00 | 24 | 807.1 | |
| 20260502002118 | 33 | 0.0 | 0.0 | 0.00 | 0.00 | 0.00 | 23 | 806.8 | |
| 20260502001103 | 34 | 0.0 | 0.0 | 0.00 | 0.00 | 0.00 | 24 | 806.6 | |
| 20260502000049 | 35 | 0.0 | 0.0 | 0.00 | 0.00 | 0.00 | 24 | 806.6 | |
| 20260501235035 | 35 | 0.0 | 0.0 | 0.00 | 0.00 | 0.00 | 24 | 806.4 | |
| 20260501234021 | 35 | 0.0 | 0.0 | 0.00 | 0.00 | 0.00 | 23 | 806.5 | |
| 20260501233007 | 35 | 0.0 | 0.0 | 0.00 | 0.00 | 0.00 | 23 | 806.6 | |
| 20260501231952 | 35 | 0.0 | 0.0 | 0.00 | 0.00 | 0.00 | 23 | 806.5 | |
| 20260501230938 | 35 | 0.0 | 0.0 | 0.00 | 0.00 | 0.00 | 23 | 806.6 | |
| 20260501225924 | 35 | 0.0 | 0.0 | 0.00 | 0.00 | 0.00 | 23 | 806.4 | |
| 20260501224910 | 33 | 0.0 | 0.0 | 0.00 | 0.00 | 0.00 | 23 | 806.2 | |
| 20260501223856 | 33 | 0.0 | 0.0 | 0.00 | 0.00 | 0.00 | 23 | 806.3 | |
| 20260501222842 | 34 | 0.0 | 0.0 | 0.00 | 0.00 | 0.00 | 23 | 806.1 | |
| 20260501221827 | 33 | 0.0 | 0.0 | 0.00 | 0.00 | 0.00 | 24 | 806.2 | |
| 20260501220813 | 33 | 0.0 | 0.0 | 0.00 | 0.00 | 0.00 | 24 | 806.3 | |
| 20260501215759 | 33 | 0.0 | 0.0 | 0.00 | 0.00 | 0.00 | 25 | 806.5 | |
| 20260501214745 | 32 | 0.0 | 0.0 | 0.00 | 0.00 | 0.00 | 25 | 806.6 | |
| 20260501213731 | 32 | 0.0 | 0.0 | 0.00 | 0.00 | 0.00 | 26 | 806.6 | |
| 20260501212716 | 31 | 0.0 | 0.0 | 0.00 | 0.00 | 0.00 | 26 | 806.8 | |
| 20260501211702 | 32 | 0.0 | 0.0 | 0.00 | 0.00 | 0.00 | 26 | 806.8 | |
| 20260501210648 | 32 | 0.0 | 0.0 | 0.00 | 0.00 | 0.00 | 26 | 806.8 | |
| 20260501205634 | 33 | 0.0 | 0.0 | 0.00 | 0.00 | 0.00 | 25 | 806.9 | |
| 20260501204620 | 33 | 0.0 | 0.0 | 0.00 | 0.00 | 0.00 | 26 | 807.1 | |
| 20260501203606 | 32 | 0.0 | 0.0 | 0.00 | 0.00 | 0.00 | 26 | 807.1 | |
| 20260501202551 | 32 | 0.0 | 0.0 | 0.00 | 0.00 | 0.00 | 26 | 807.3 | |
| 20260501201537 | 32 | 0.0 | 0.0 | 0.00 | 0.00 | 0.00 | 26 | 807.4 | |
| 20260501200523 | 32 | 0.0 | 0.0 | 0.00 | 0.00 | 0.00 | 26 | 807.6 | |
| 20260501195509 | 32 | 0.0 | 0.0 | 0.00 | 0.00 | 0.00 | 27 | 807.7 | |
| 20260501194455 | 32 | 0.0 | 0.0 | 0.00 | 0.00 | 0.00 | 27 | 807.9 | |
| 20260501193440 | 32 | 0.0 | 0.0 | 0.00 | 0.00 | 0.00 | 27 | 808.1 | |
| 20260501192426 | 32 | 0.0 | 0.0 | 0.00 | 0.00 | 0.00 | 27 | 808.3 | |
| 20260501191412 | 32 | 0.0 | 0.0 | 0.00 | 0.00 | 0.00 | 27 | 808.5 | |
| 20260501190358 | 31 | 0.0 | 0.0 | 0.00 | 0.00 | 0.00 | 28 | 808.7 | |
| 20260501185344 | 31 | 0.0 | 0.0 | 0.00 | 0.00 | 0.00 | 28 | 808.8 | |
| 20260501184329 | 32 | 0.0 | 0.0 | 0.00 | 0.00 | 0.00 | 27 | 808.8 | |
| 20260501183315 | 31 | 0.0 | 0.0 | 0.00 | 0.00 | 0.00 | 28 | 809.1 | |
| 20260501182305 | 31 | 0.0 | 0.0 | 0.00 | 0.00 | 0.00 | 28 | 809.2 | |
| 20260501181247 | 31 | 0.0 | 0.0 | 0.00 | 0.00 | 0.00 | 29 | 809.3 | |
| 20260501180233 | 30 | 0.0 | 0.0 | 0.00 | 0.00 | 0.00 | 30 | 809.5 | |
| 20260501175218 | 31 | 0.0 | 0.0 | 0.00 | 0.00 | 0.00 | 29 | 809.7 | |
| 20260501174204 | 30 | 0.0 | 0.0 | 0.00 | 0.00 | 0.00 | 28 | 809.8 | |
| 20260501173150 | 31 | 0.0 | 0.0 | 0.00 | 0.00 | 0.00 | 30 | 809.9 | |
| 20260501172136 | 30 | 0.0 | 0.0 | 0.00 | 0.00 | 0.00 | 30 | 809.8 | |
| 20260501171122 | 30 | 0.0 | 0.0 | 0.00 | 0.00 | 0.00 | 31 | 810.0 | |
| 20260501170108 | 30 | 0.0 | 0.0 | 0.00 | 0.00 | 0.00 | 33 | 810.1 | |
| 20260501165053 | 30 | 0.0 | 0.0 | 0.00 | 0.00 | 0.00 | 32 | 810.3 | |
| 20260501164039 | 30 | 0.0 | 0.0 | 0.00 | 0.00 | 0.00 | 35 | 810.3 | |
| 20260501163025 | 30 | 0.0 | 0.0 | 0.00 | 0.00 | 0.00 | 33 | 810.3 | |
| 20260501162011 | 30 | 0.0 | 0.0 | 0.00 | 0.00 | 0.00 | 33 | 810.4 | |
| 20260501160957 | 30 | 0.0 | 0.0 | 0.00 | 0.00 | 0.00 | 31 | 810.5 | |
| 20260501155942 | 30 | 0.0 | 0.0 | 0.00 | 0.00 | 0.00 | 31 | 810.6 | |
| 20260501154928 | 31 | 0.0 | 0.0 | 0.00 | 0.00 | 0.00 | 29 | 810.7 | |
| 20260501153914 | 30 | 0.0 | 0.0 | 0.00 | 0.00 | 0.00 | 28 | 810.7 | |
| 20260501152900 | 30 | 0.0 | 0.0 | 0.00 | 0.00 | 0.00 | 28 | 810.8 |